Colby, KS

9:19 AM CDT on May 24, 2017 (GMT -0500)
Shaltz

Weather History for KCBK - March, 2014

Change the Weather History Date:

Sunday, March 30, 2014

  Actual Average (KGLD) Record (KGLD)
Temperature  
Mean Temperature 54 °F -  
Max Temperature 71 °F 56 °F 88 °F (2010)
Min Temperature 37 °F 27 °F 2 °F (1987)
Degree Days  
Heating Degree Days 11    
Growing Degree Days 4 (Base 50)    
Moisture  
Dew Point 32 °F    
Average Humidity 40    
Maximum Humidity 75    
Minimum Humidity 21    
Precipitation  
Precipitation 0.00 in - - ()
Sea Level Pressure  
Sea Level Pressure 29.73 in    
Wind  
Wind Speed 13 mph (South)    
Max Wind Speed 22 mph    
Max Gust Speed 30 mph    
Visibility 10 miles    
Events      
Averages and records for this station are not official NWS values.
T = Trace of Precipitation, MM = Missing Value Source: NWS Daily Summary

Daily Weather History Graph

Daily Weather History Graph

Search for Another Location

Airport or City:

Trip Planner

Search our weather history database for the weather conditions in past years. The results will help you decide how hot, cold, wet, or windy it might be!

Date:

Astronomy

Mar. 30, 2014 Rise Set
Actual Time 7:31 AM CDT 8:06 PM CDT
Civil Twilight 7:04 AM CDT 8:33 PM CDT
Nautical Twilight 6:32 AM CDT 9:05 PM CDT
Astronomical Twilight 6:00 AM CDT 9:37 PM CDT
Moon 7:18 AM CDT (3/30) 8:20 PM CDT (3/30)
Length of Visible Light 13h 28m
Length of Day
12h 34m
Waning Crescent, 0% of the Moon is Illuminated
Mar 30
Waning Crescent
Mar 30
New
Apr 7
First Quarter
Apr 15
Full
Apr 22
Last Quarter

Hourly Weather History & Observations

Time (CDT) Temp. Windchill Dew Point Humidity Pressure Visibility Wind Dir Wind Speed Gust Speed Precip Events Conditions
12:10 AM 55.4 °F - 30.2 °F 38% 29.93 in 10.0 mi South 19.6 mph 29.9 mph N/A   Clear
12:30 AM 55.4 °F - 30.2 °F 38% 29.92 in 10.0 mi South 18.4 mph 24.2 mph N/A   Clear
12:50 AM 55.4 °F - 30.2 °F 38% 29.91 in 10.0 mi South 19.6 mph 26.5 mph N/A   Clear
1:10 AM 55.4 °F - 30.2 °F 38% 29.90 in 10.0 mi South 21.9 mph 27.6 mph N/A   Clear
1:30 AM 55.4 °F - 30.2 °F 38% 29.90 in 10.0 mi South 18.4 mph 25.3 mph N/A   Clear
1:50 AM 53.6 °F - 30.2 °F 41% 29.90 in 10.0 mi South 13.8 mph 21.9 mph N/A   Clear
2:10 AM 53.6 °F - 30.2 °F 41% 29.89 in 10.0 mi South 15.0 mph 18.4 mph N/A   Clear
2:30 AM 53.6 °F - 30.2 °F 41% 29.88 in 10.0 mi South 13.8 mph 23.0 mph N/A   Clear
2:50 AM 51.8 °F - 30.2 °F 44% 29.87 in 10.0 mi South 13.8 mph - N/A   Clear
3:10 AM 51.8 °F - 30.2 °F 44% 29.86 in 10.0 mi South 15.0 mph - N/A   Clear
3:30 AM 51.8 °F - 30.2 °F 44% 29.85 in 10.0 mi South 16.1 mph 20.7 mph N/A   Clear
3:50 AM 50.0 °F - 30.2 °F 47% 29.84 in 10.0 mi South 12.7 mph 17.3 mph N/A   Clear
4:10 AM 50.0 °F - 28.4 °F 43% 29.84 in 10.0 mi South 10.4 mph - N/A   Clear
4:30 AM 50.0 °F - 28.4 °F 43% 29.82 in 10.0 mi South 11.5 mph - N/A   Clear
4:50 AM 48.2 °F - 28.4 °F 46% 29.82 in 10.0 mi South 8.1 mph - N/A   Clear
5:10 AM 46.4 °F 42.4 °F 30.2 °F 53% 29.82 in 10.0 mi South 8.1 mph - N/A   Clear
5:30 AM 44.6 °F 40.2 °F 30.2 °F 57% 29.82 in 10.0 mi SSW 8.1 mph - N/A   Clear
5:50 AM 44.6 °F 40.2 °F 30.2 °F 57% 29.82 in 10.0 mi South 8.1 mph - N/A   Clear
6:10 AM 44.6 °F 40.2 °F 30.2 °F 57% 29.82 in 10.0 mi SSW 8.1 mph - N/A   Clear
6:30 AM 44.6 °F 39.7 °F 30.2 °F 57% 29.82 in 10.0 mi SSW 9.2 mph - N/A   Clear
6:50 AM 42.8 °F 36.6 °F 30.2 °F 61% 29.82 in 10.0 mi SSW 11.5 mph - N/A   Clear
7:10 AM 42.8 °F 37.0 °F 30.2 °F 61% 29.82 in 10.0 mi SW 10.4 mph - N/A   Clear
7:30 AM 37.4 °F 30.8 °F 30.2 °F 75% 29.82 in 10.0 mi SW 9.2 mph - N/A   Clear
7:50 AM 39.2 °F 33.6 °F 30.2 °F 70% 29.82 in 10.0 mi WSW 8.1 mph - N/A   Clear
8:10 AM 42.8 °F 37.5 °F 32.0 °F 66% 29.84 in 10.0 mi SW 9.2 mph - N/A   Clear
8:30 AM 42.8 °F 37.5 °F 32.0 °F 66% 29.83 in 10.0 mi SW 9.2 mph - N/A   Clear
8:50 AM 42.8 °F 37.0 °F 32.0 °F 66% 29.82 in 10.0 mi SW 10.4 mph - N/A   Clear
9:10 AM 44.6 °F 38.4 °F 32.0 °F 61% 29.82 in 10.0 mi SW 12.7 mph - N/A   Clear
9:30 AM 46.4 °F 41.5 °F 32.0 °F 57% 29.82 in 10.0 mi SW 10.4 mph - N/A   Clear
9:50 AM 50.0 °F - 32.0 °F 50% 29.81 in 10.0 mi SW 11.5 mph - N/A   Clear
10:10 AM 51.8 °F - 32.0 °F 47% 29.81 in 10.0 mi SW 10.4 mph - N/A   Clear
10:30 AM 53.6 °F - 32.0 °F 44% 29.81 in 10.0 mi SW 11.5 mph - N/A   Clear
10:50 AM 55.4 °F - 32.0 °F 41% 29.81 in 10.0 mi SW 10.4 mph - N/A   Clear
11:10 AM 59.0 °F - 32.0 °F 36% 29.80 in 10.0 mi SW 8.1 mph - N/A   Clear
11:30 AM 60.8 °F - 32.0 °F 34% 29.80 in 10.0 mi SW 10.4 mph - N/A   Clear
11:50 AM 64.4 °F - 32.0 °F 30% 29.79 in 10.0 mi SSW 11.5 mph - N/A   Clear
12:10 PM 64.4 °F - 30.2 °F 28% 29.78 in 10.0 mi SSW 11.5 mph - N/A   Clear
12:30 PM 66.2 °F - 30.2 °F 26% 29.77 in 10.0 mi SSW 10.4 mph - N/A   Clear
12:50 PM 68.0 °F - 30.2 °F 24% 29.76 in 10.0 mi SSW 8.1 mph - N/A   Clear
1:10 PM 69.8 °F - 30.2 °F 23% 29.75 in 10.0 mi SSW 10.4 mph - N/A   Clear
1:30 PM 69.8 °F - 30.2 °F 23% 29.75 in 10.0 mi SSW 8.1 mph - N/A   Clear
1:50 PM 69.8 °F - 30.2 °F 23% 29.74 in 10.0 mi South 9.2 mph - N/A   Clear
2:10 PM 69.8 °F - 28.4 °F 21% 29.72 in 10.0 mi South 6.9 mph - N/A   Clear
2:30 PM 69.8 °F - 30.2 °F 23% 29.71 in 10.0 mi South 10.4 mph - N/A   Clear
2:50 PM 71.6 °F - 30.2 °F 22% 29.71 in 10.0 mi South 13.8 mph - N/A   Clear
3:10 PM 69.8 °F - 32.0 °F 25% 29.70 in 10.0 mi South 12.7 mph - N/A   Clear
3:30 PM 69.8 °F - 33.8 °F 27% 29.69 in 10.0 mi South 12.7 mph - N/A   Clear
3:50 PM 71.6 °F - 32.0 °F 23% 29.68 in 10.0 mi South 13.8 mph - N/A   Clear
4:10 PM 71.6 °F - 32.0 °F 23% 29.67 in 10.0 mi South 12.7 mph - N/A   Clear
4:30 PM 71.6 °F - 32.0 °F 23% 29.66 in 10.0 mi SSE 11.5 mph - N/A   Clear
4:50 PM 71.6 °F - 32.0 °F 23% 29.64 in 10.0 mi SSE 11.5 mph - N/A   Clear
5:10 PM 71.6 °F - 32.0 °F 23% 29.64 in 10.0 mi SSE 15.0 mph - N/A   Clear
5:30 PM 69.8 °F - 32.0 °F 25% 29.63 in 10.0 mi SSE 11.5 mph - N/A   Clear
5:50 PM 69.8 °F - 33.8 °F 27% 29.61 in 10.0 mi SSE 10.4 mph - N/A   Clear
6:10 PM 69.8 °F - 35.6 °F 28% 29.60 in 10.0 mi SSE 10.4 mph - N/A   Clear
6:30 PM 68.0 °F - 35.6 °F 30% 29.59 in 10.0 mi SE 11.5 mph - N/A   Clear
6:50 PM 64.4 °F - 35.6 °F 34% 29.58 in 10.0 mi SE 8.1 mph - N/A   Clear
7:10 PM 62.6 °F - 35.6 °F 37% 29.57 in 10.0 mi SE 8.1 mph - N/A   Clear
7:30 PM 60.8 °F - 35.6 °F 39% 29.57 in 10.0 mi SE 5.8 mph - N/A   Clear
7:50 PM 60.8 °F - 35.6 °F 39% 29.57 in 10.0 mi SE 6.9 mph - N/A   Clear
8:10 PM 59.0 °F - 35.6 °F 42% 29.56 in 10.0 mi SE 8.1 mph - N/A   Clear
8:30 PM 59.0 °F - 35.6 °F 42% 29.54 in 10.0 mi SE 8.1 mph - N/A   Clear
8:50 PM 59.0 °F - 35.6 °F 42% 29.52 in 10.0 mi SE 9.2 mph - N/A   Clear
9:10 PM 57.2 °F - 33.8 °F 41% 29.52 in 10.0 mi SE 11.5 mph - N/A   Clear
9:30 PM 59.0 °F - 33.8 °F 39% 29.52 in 10.0 mi SSE 12.7 mph - N/A   Clear
9:50 PM 59.0 °F - 32.0 °F 36% 29.51 in 10.0 mi SSE 11.5 mph - N/A   Clear
10:10 PM 60.8 °F - 32.0 °F 34% 29.50 in 10.0 mi SSE 17.3 mph - N/A   Clear
10:30 PM 60.8 °F - 32.0 °F 34% 29.49 in 10.0 mi SSE 16.1 mph - N/A   Scattered Clouds
10:50 PM 59.0 °F - 32.0 °F 36% 29.49 in 10.0 mi SSE 18.4 mph - N/A   Clear
11:10 PM 62.6 °F - 32.0 °F 32% 29.50 in 10.0 mi South 19.6 mph 27.6 mph N/A   Clear
11:30 PM 60.8 °F - 30.2 °F 31% 29.48 in 10.0 mi South 11.5 mph 19.6 mph N/A   Clear
11:50 PM 59.0 °F - 28.4 °F 31% 29.48 in 10.0 mi SSE 9.2 mph - N/A   Clear